owner,sensor,date,latitude,longitude,vertical_datum,wind_speed,wind_to_direction,wind_speed_of_gust,qcFlag 
COMPS,ioos:station:USF.COMPS:ARP:1,2017-10-01T00:00:00Z,28.4330,-82.6670,10.0,3.15,78.82,4.6,'1111122,1111122,1111122' 
COMPS,ioos:station:USF.COMPS:ARP:1,2017-10-01T00:06:00Z,28.4330,-82.6670,10.0,3.76,82.22,5.97,'1111122,1111122,1111122' 
COMPS,ioos:station:USF.COMPS:ARP:1,2017-10-01T00:12:00Z,28.4330,-82.6670,10.0,3.63,78.5,5.78,'1111122,1111122,1111122' 
COMPS,ioos:station:USF.COMPS:ARP:1,2017-10-01T00:18:00Z,28.4330,-82.6670,10.0,4.0,71.99,5.39,'1111122,1111122,1111122' 
COMPS,ioos:station:USF.COMPS:ARP:1,2017-10-01T00:24:00Z,28.4330,-82.6670,10.0,4.01,74.53,5.78,'1111122,1111122,1111122' 
COMPS,ioos:station:USF.COMPS:ARP:1,2017-10-01T00:30:00Z,28.4330,-82.6670,10.0,3.81,70.43,5.19,'1111122,1111122,1111122' 
COMPS,ioos:station:USF.COMPS:ARP:1,2017-10-01T00:36:00Z,28.4330,-82.6670,10.0,3.42,72.44,4.7,'1111122,1111122,1111122' 
COMPS,ioos:station:USF.COMPS:ARP:1,2017-10-01T00:42:00Z,28.4330,-82.6670,10.0,4.18,75.45,6.07,'1111122,1111122,1111122' 
COMPS,ioos:station:USF.COMPS:ARP:1,2017-10-01T00:48:00Z,28.4330,-82.6670,10.0,4.53,72.11,6.76,'1111122,1111122,1111122' 
COMPS,ioos:station:USF.COMPS:ARP:1,2017-10-01T00:54:00Z,28.4330,-82.6670,10.0,4.33,74.03,6.37,'1111122,1111122,1111122' 
COMPS,ioos:station:USF.COMPS:ARP:1,2017-10-01T01:00:00Z,28.4330,-82.6670,10.0,3.66,78.19,5.39,'1111122,1111122,1111122' 
COMPS,ioos:station:USF.COMPS:ARP:1,2017-10-01T01:06:00Z,28.4330,-82.6670,10.0,3.15,76.66,5.48,'1111122,1111122,1111122' 
COMPS,ioos:station:USF.COMPS:ARP:1,2017-10-01T01:12:00Z,28.4330,-82.6670,10.0,3.44,83.07,5.19,'1111122,1111122,1111122' 
COMPS,ioos:station:USF.COMPS:ARP:1,2017-10-01T01:18:00Z,28.4330,-82.6670,10.0,3.7,78.84,5.39,'1111122,1111122,1111122' 
COMPS,ioos:station:USF.COMPS:ARP:1,2017-10-01T01:24:00Z,28.4330,-82.6670,10.0,3.76,76.46,5.97,'1111122,1111122,1111122' 
COMPS,ioos:station:USF.COMPS:ARP:1,2017-10-01T01:30:00Z,28.4330,-82.6670,10.0,4.71,70.19,6.37,'1111122,1111122,1111122' 
COMPS,ioos:station:USF.COMPS:ARP:1,2017-10-01T01:36:00Z,28.4330,-82.6670,10.0,4.43,71.05,5.87,'1111122,1111122,1111122' 
COMPS,ioos:station:USF.COMPS:ARP:1,2017-10-01T01:42:00Z,28.4330,-82.6670,10.0,4.95,65.86,5.97,'1111122,1111122,1111122' 
COMPS,ioos:station:USF.COMPS:ARP:1,2017-10-01T01:48:00Z,28.4330,-82.6670,10.0,4.44,70.01,5.87,'1111122,1111122,1111122' 
COMPS,ioos:station:USF.COMPS:ARP:1,2017-10-01T01:54:00Z,28.4330,-82.6670,10.0,4.53,68.71,5.97,'1111122,1111122,1111122' 
COMPS,ioos:station:USF.COMPS:ARP:1,2017-10-01T02:00:00Z,28.4330,-82.6670,10.0,4.25,68.14,6.66,'1111122,1111122,1111122' 
COMPS,ioos:station:USF.COMPS:ARP:1,2017-10-01T02:06:00Z,28.4330,-82.6670,10.0,4.29,73.68,6.17,'1111122,1111122,1111122' 
COMPS,ioos:station:USF.COMPS:ARP:1,2017-10-01T02:12:00Z,28.4330,-82.6670,10.0,4.24,71.05,6.07,'1111122,1111122,1111122' 
COMPS,ioos:station:USF.COMPS:ARP:1,2017-10-01T02:18:00Z,28.4330,-82.6670,10.0,4.57,66.22,6.17,'1111122,1111122,1111122' 
COMPS,ioos:station:USF.COMPS:ARP:1,2017-10-01T02:24:00Z,28.4330,-82.6670,10.0,4.78,69.39,7.44,'1111122,1111122,1111122' 
COMPS,ioos:station:USF.COMPS:ARP:1,2017-10-01T02:30:00Z,28.4330,-82.6670,10.0,4.59,71.93,6.95,'1111122,1111122,1111122' 
COMPS,ioos:station:USF.COMPS:ARP:1,2017-10-01T02:36:00Z,28.4330,-82.6670,10.0,3.72,67.06,5.58,'1111122,1111122,1111122' 
COMPS,ioos:station:USF.COMPS:ARP:1,2017-10-01T02:42:00Z,28.4330,-82.6670,10.0,3.99,67.49,7.25,'1111122,1111122,1111122' 
COMPS,ioos:station:USF.COMPS:ARP:1,2017-10-01T02:48:00Z,28.4330,-82.6670,10.0,4.64,66.61,5.97,'1111122,1111122,1111122' 
COMPS,ioos:station:USF.COMPS:ARP:1,2017-10-01T02:54:00Z,28.4330,-82.6670,10.0,4.98,71.79,7.05,'1111122,1111122,1111122' 
COMPS,ioos:station:USF.COMPS:ARP:1,2017-10-01T03:00:00Z,28.4330,-82.6670,10.0,5.11,66.79,6.95,'1111122,1111122,1111122' 
COMPS,ioos:station:USF.COMPS:ARP:1,2017-10-01T03:06:00Z,28.4330,-82.6670,10.0,4.13,74.87,6.27,'1111122,1111122,1111122' 
COMPS,ioos:station:USF.COMPS:ARP:1,2017-10-01T03:12:00Z,28.4330,-82.6670,10.0,4.89,72.56,6.95,'1111122,1111122,1111122' 
COMPS,ioos:station:USF.COMPS:ARP:1,2017-10-01T03:18:00Z,28.4330,-82.6670,10.0,4.57,76.76,6.56,'1111122,1111122,1111122' 
COMPS,ioos:station:USF.COMPS:ARP:1,2017-10-01T03:24:00Z,28.4330,-82.6670,10.0,4.66,75.07,6.17,'1111122,1111122,1111122' 
COMPS,ioos:station:USF.COMPS:ARP:1,2017-10-01T03:30:00Z,28.4330,-82.6670,10.0,4.21,78.77,5.58,'1111122,1111122,1111122' 
COMPS,ioos:station:USF.COMPS:ARP:1,2017-10-01T03:36:00Z,28.4330,-82.6670,10.0,3.79,73.82,5.78,'1111122,1111122,1111122' 
COMPS,ioos:station:USF.COMPS:ARP:1,2017-10-01T03:42:00Z,28.4330,-82.6670,10.0,4.28,76.81,6.85,'1111122,1111122,1111122' 
COMPS,ioos:station:USF.COMPS:ARP:1,2017-10-01T03:48:00Z,28.4330,-82.6670,10.0,4.02,74.21,5.29,'1111122,1111122,1111122' 
COMPS,ioos:station:USF.COMPS:ARP:1,2017-10-01T03:54:00Z,28.4330,-82.6670,10.0,4.19,73.54,6.46,'1111122,1111122,1111122' 
COMPS,ioos:station:USF.COMPS:ARP:1,2017-10-01T04:00:00Z,28.4330,-82.6670,10.0,4.55,74.91,7.15,'1111122,1111122,1111122' 
COMPS,ioos:station:USF.COMPS:ARP:1,2017-10-01T04:06:00Z,28.4330,-82.6670,10.0,4.61,72.21,6.17,'1111122,1111122,1111122' 
COMPS,ioos:station:USF.COMPS:ARP:1,2017-10-01T04:12:00Z,28.4330,-82.6670,10.0,5.07,73.29,7.64,'1111122,1111122,1111122' 
COMPS,ioos:station:USF.COMPS:ARP:1,2017-10-01T04:18:00Z,28.4330,-82.6670,10.0,4.99,77.94,7.93,'1111122,1111122,1111122' 
COMPS,ioos:station:USF.COMPS:ARP:1,2017-10-01T04:24:00Z,28.4330,-82.6670,10.0,5.27,69.91,7.54,'1111122,1111122,1111122' 
COMPS,ioos:station:USF.COMPS:ARP:1,2017-10-01T04:30:00Z,28.4330,-82.6670,10.0,4.99,72.92,7.54,'1111122,1111122,1111122' 
COMPS,ioos:station:USF.COMPS:ARP:1,2017-10-01T04:36:00Z,28.4330,-82.6670,10.0,4.32,78.63,6.66,'1111122,1111122,1111122' 
COMPS,ioos:station:USF.COMPS:ARP:1,2017-10-01T04:42:00Z,28.4330,-82.6670,10.0,3.34,79.86,5.78,'1111122,1111122,1111122' 
COMPS,ioos:station:USF.COMPS:ARP:1,2017-10-01T04:48:00Z,28.4330,-82.6670,10.0,3.27,82.23,5.09,'1111122,1111122,1111122' 
COMPS,ioos:station:USF.COMPS:ARP:1,2017-10-01T04:54:00Z,28.4330,-82.6670,10.0,3.67,79.46,4.8,'1111122,1111122,1111122' 
COMPS,ioos:station:USF.COMPS:ARP:1,2017-10-01T05:00:00Z,28.4330,-82.6670,10.0,3.51,83.6,5.29,'1111122,1111122,1111122' 
COMPS,ioos:station:USF.COMPS:ARP:1,2017-10-01T05:06:00Z,28.4330,-82.6670,10.0,3.56,80.05,5.68,'1111122,1111122,1111122' 
COMPS,ioos:station:USF.COMPS:ARP:1,2017-10-01T05:12:00Z,28.4330,-82.6670,10.0,3.25,85.13,5.48,'1111122,1111122,1111122' 
COMPS,ioos:station:USF.COMPS:ARP:1,2017-10-01T05:18:00Z,28.4330,-82.6670,10.0,2.55,87.75,4.11,'1111122,1111122,1111122' 
COMPS,ioos:station:USF.COMPS:ARP:1,2017-10-01T05:24:00Z,28.4330,-82.6670,10.0,2.7,86.74,4.41,'1111122,1111122,1111122' 
COMPS,ioos:station:USF.COMPS:ARP:1,2017-10-01T05:30:00Z,28.4330,-82.6670,10.0,2.43,87.57,4.31,'1111122,1111122,1111122' 
COMPS,ioos:station:USF.COMPS:ARP:1,2017-10-01T05:36:00Z,28.4330,-82.6670,10.0,2.21,90.97,3.33,'1111122,1111122,1111122' 
COMPS,ioos:station:USF.COMPS:ARP:1,2017-10-01T05:42:00Z,28.4330,-82.6670,10.0,2.44,89.22,3.52,'1111122,1111122,1111122' 
COMPS,ioos:station:USF.COMPS:ARP:1,2017-10-01T05:48:00Z,28.4330,-82.6670,10.0,2.41,100.0,3.72,'1111122,1111122,1111122' 
COMPS,ioos:station:USF.COMPS:ARP:1,2017-10-01T05:54:00Z,28.4330,-82.6670,10.0,2.97,95.13,4.5,'1111122,1111122,1111122' 
COMPS,ioos:station:USF.COMPS:ARP:1,2017-10-01T06:00:00Z,28.4330,-82.6670,10.0,3.16,86.65,5.78,'1111122,1111122,1111122' 
COMPS,ioos:station:USF.COMPS:ARP:1,2017-10-01T06:06:00Z,28.4330,-82.6670,10.0,2.78,88.34,4.41,'1111122,1111122,1111122' 
COMPS,ioos:station:USF.COMPS:ARP:1,2017-10-01T06:12:00Z,28.4330,-82.6670,10.0,2.53,83.88,4.6,'1111122,1111122,1111122' 
COMPS,ioos:station:USF.COMPS:ARP:1,2017-10-01T06:18:00Z,28.4330,-82.6670,10.0,2.24,86.44,3.52,'1111122,1111122,1111122' 
COMPS,ioos:station:USF.COMPS:ARP:1,2017-10-01T06:24:00Z,28.4330,-82.6670,10.0,2.4,83.16,3.23,'1111122,1111122,1111122' 
COMPS,ioos:station:USF.COMPS:ARP:1,2017-10-01T06:30:00Z,28.4330,-82.6670,10.0,2.16,89.12,2.93,'1111122,1111122,1111122' 
COMPS,ioos:station:USF.COMPS:ARP:1,2017-10-01T06:36:00Z,28.4330,-82.6670,10.0,1.95,88.97,3.52,'1111122,1111122,1111122' 
COMPS,ioos:station:USF.COMPS:ARP:1,2017-10-01T06:42:00Z,28.4330,-82.6670,10.0,2.44,88.56,3.91,'1111122,1111122,1111122' 
COMPS,ioos:station:USF.COMPS:ARP:1,2017-10-01T06:48:00Z,28.4330,-82.6670,10.0,1.7,82.85,2.64,'1111122,1111122,1111122' 
COMPS,ioos:station:USF.COMPS:ARP:1,2017-10-01T06:54:00Z,28.4330,-82.6670,10.0,2.28,77.26,3.62,'1111122,1111122,1111122' 
COMPS,ioos:station:USF.COMPS:ARP:1,2017-10-01T07:00:00Z,28.4330,-82.6670,10.0,2.02,75.75,2.74,'1111122,1111122,1111122' 
COMPS,ioos:station:USF.COMPS:ARP:1,2017-10-01T07:06:00Z,28.4330,-82.6670,10.0,2.05,91.96,3.42,'1111122,1111122,1111122' 
COMPS,ioos:station:USF.COMPS:ARP:1,2017-10-01T07:12:00Z,28.4330,-82.6670,10.0,2.27,79.29,3.13,'1111122,1111122,1111122' 
COMPS,ioos:station:USF.COMPS:ARP:1,2017-10-01T07:18:00Z,28.4330,-82.6670,10.0,1.97,100.25,2.84,'1111122,1111122,1111122' 
COMPS,ioos:station:USF.COMPS:ARP:1,2017-10-01T07:24:00Z,28.4330,-82.6670,10.0,2.1,89.24,3.23,'1111122,1111122,1111122' 
COMPS,ioos:station:USF.COMPS:ARP:1,2017-10-01T07:30:00Z,28.4330,-82.6670,10.0,2.29,106.94,3.33,'1111122,1111122,1111122' 
COMPS,ioos:station:USF.COMPS:ARP:1,2017-10-01T07:36:00Z,28.4330,-82.6670,10.0,2.22,95.41,3.52,'1111122,1111122,1111122' 
COMPS,ioos:station:USF.COMPS:ARP:1,2017-10-01T07:42:00Z,28.4330,-82.6670,10.0,2.08,97.58,3.91,'1111122,1111122,1111122' 
COMPS,ioos:station:USF.COMPS:ARP:1,2017-10-01T07:48:00Z,28.4330,-82.6670,10.0,1.54,99.67,2.45,'1111122,1111122,1111122' 
COMPS,ioos:station:USF.COMPS:ARP:1,2017-10-01T07:54:00Z,28.4330,-82.6670,10.0,2.14,80.71,3.62,'1111122,1111122,1111122' 
COMPS,ioos:station:USF.COMPS:ARP:1,2017-10-01T08:00:00Z,28.4330,-82.6670,10.0,2.26,69.84,3.42,'1111122,1111122,1111122' 
COMPS,ioos:station:USF.COMPS:ARP:1,2017-10-01T08:06:00Z,28.4330,-82.6670,10.0,1.91,73.61,2.84,'1111122,1111122,1111122' 
COMPS,ioos:station:USF.COMPS:ARP:1,2017-10-01T08:12:00Z,28.4330,-82.6670,10.0,1.32,79.82,2.35,'1111122,1111122,1111122' 
COMPS,ioos:station:USF.COMPS:ARP:1,2017-10-01T08:18:00Z,28.4330,-82.6670,10.0,1.4,71.21,1.76,'1111122,1111122,1111122' 
COMPS,ioos:station:USF.COMPS:ARP:1,2017-10-01T08:24:00Z,28.4330,-82.6670,10.0,1.2,69.95,1.95,'1111122,1111122,1111122' 
COMPS,ioos:station:USF.COMPS:ARP:1,2017-10-01T08:30:00Z,28.4330,-82.6670,10.0,0.95,70.42,2.15,'1111122,1111122,1111122' 
COMPS,ioos:station:USF.COMPS:ARP:1,2017-10-01T08:36:00Z,28.4330,-82.6670,10.0,0.98,70.6,1.66,'1111122,1111122,1111122' 
COMPS,ioos:station:USF.COMPS:ARP:1,2017-10-01T08:42:00Z,28.4330,-82.6670,10.0,0.8,66.12,1.37,'1111122,1111122,1111122' 
COMPS,ioos:station:USF.COMPS:ARP:1,2017-10-01T08:48:00Z,28.4330,-82.6670,10.0,0.46,58.75,0.97,'1111122,1111122,1111122' 
COMPS,ioos:station:USF.COMPS:ARP:1,2017-10-01T08:54:00Z,28.4330,-82.6670,10.0,0.53,58.87,1.17,'1111122,1111122,1111122' 
COMPS,ioos:station:USF.COMPS:ARP:1,2017-10-01T09:00:00Z,28.4330,-82.6670,10.0,0.54,62.38,1.76,'1111122,1111122,1111122' 
COMPS,ioos:station:USF.COMPS:ARP:1,2017-10-01T09:06:00Z,28.4330,-82.6670,10.0,0.88,81.67,1.76,'1111122,1111122,1111122' 
COMPS,ioos:station:USF.COMPS:ARP:1,2017-10-01T09:12:00Z,28.4330,-82.6670,10.0,1.02,65.84,1.66,'1111122,1111122,1111122' 
COMPS,ioos:station:USF.COMPS:ARP:1,2017-10-01T09:18:00Z,28.4330,-82.6670,10.0,1.39,67.09,1.95,'1111122,1111122,1111122' 
COMPS,ioos:station:USF.COMPS:ARP:1,2017-10-01T09:24:00Z,28.4330,-82.6670,10.0,1.15,67.97,1.95,'1111122,1111122,1111122' 
COMPS,ioos:station:USF.COMPS:ARP:1,2017-10-01T09:30:00Z,28.4330,-82.6670,10.0,1.04,71.51,1.56,'1111122,1111122,1111122' 
COMPS,ioos:station:USF.COMPS:ARP:1,2017-10-01T09:36:00Z,28.4330,-82.6670,10.0,1.4,66.28,1.86,'1111122,1111122,1111122' 
COMPS,ioos:station:USF.COMPS:ARP:1,2017-10-01T09:42:00Z,28.4330,-82.6670,10.0,1.47,70.67,1.95,'1111122,1111122,1111122' 
COMPS,ioos:station:USF.COMPS:ARP:1,2017-10-01T09:48:00Z,28.4330,-82.6670,10.0,1.42,70.55,2.05,'1111122,1111122,1111122' 
COMPS,ioos:station:USF.COMPS:ARP:1,2017-10-01T09:54:00Z,28.4330,-82.6670,10.0,1.04,79.91,1.86,'1111122,1111122,1111122' 
COMPS,ioos:station:USF.COMPS:ARP:1,2017-10-01T10:00:00Z,28.4330,-82.6670,10.0,1.26,75.2,1.56,'1111122,1111122,1111122' 
COMPS,ioos:station:USF.COMPS:ARP:1,2017-10-01T10:06:00Z,28.4330,-82.6670,10.0,1.3,83.74,1.66,'1111122,1111122,1111122' 
COMPS,ioos:station:USF.COMPS:ARP:1,2017-10-01T10:12:00Z,28.4330,-82.6670,10.0,1.31,77.41,1.76,'1111122,1111122,1111122' 
COMPS,ioos:station:USF.COMPS:ARP:1,2017-10-01T10:18:00Z,28.4330,-82.6670,10.0,1.52,73.72,2.05,'1111122,1111122,1111122' 
COMPS,ioos:station:USF.COMPS:ARP:1,2017-10-01T10:24:00Z,28.4330,-82.6670,10.0,1.2,76.33,1.76,'1111122,1111122,1111122' 
COMPS,ioos:station:USF.COMPS:ARP:1,2017-10-01T10:30:00Z,28.4330,-82.6670,10.0,1.2,69.45,1.46,'1111122,1111122,1111122' 
COMPS,ioos:station:USF.COMPS:ARP:1,2017-10-01T10:36:00Z,28.4330,-82.6670,10.0,1.01,63.57,1.46,'1111122,1111122,1111122' 
COMPS,ioos:station:USF.COMPS:ARP:1,2017-10-01T10:42:00Z,28.4330,-82.6670,10.0,1.2,66.05,1.86,'1111122,1111122,1111122' 
COMPS,ioos:station:USF.COMPS:ARP:1,2017-10-01T10:48:00Z,28.4330,-82.6670,10.0,1.52,67.68,2.05,'1111122,1111122,1111122' 
COMPS,ioos:station:USF.COMPS:ARP:1,2017-10-01T10:54:00Z,28.4330,-82.6670,10.0,1.9,69.56,2.45,'1111122,1111122,1111122' 
COMPS,ioos:station:USF.COMPS:ARP:1,2017-10-01T11:00:00Z,28.4330,-82.6670,10.0,1.4,63.71,2.45,'1111122,1111122,1111122' 
COMPS,ioos:station:USF.COMPS:ARP:1,2017-10-01T11:06:00Z,28.4330,-82.6670,10.0,1.4,62.57,2.05,'1111122,1111122,1111122' 
COMPS,ioos:station:USF.COMPS:ARP:1,2017-10-01T11:12:00Z,28.4330,-82.6670,10.0,1.64,67.39,2.93,'1111122,1111122,1111122' 
COMPS,ioos:station:USF.COMPS:ARP:1,2017-10-01T11:18:00Z,28.4330,-82.6670,10.0,1.57,65.55,2.74,'1111122,1111122,1111122' 
COMPS,ioos:station:USF.COMPS:ARP:1,2017-10-01T11:24:00Z,28.4330,-82.6670,10.0,1.68,71.55,2.64,'1111122,1111122,1111122' 
COMPS,ioos:station:USF.COMPS:ARP:1,2017-10-01T11:30:00Z,28.4330,-82.6670,10.0,2.13,66.65,2.84,'1111122,1111122,1111122' 
COMPS,ioos:station:USF.COMPS:ARP:1,2017-10-01T11:36:00Z,28.4330,-82.6670,10.0,2.09,67.73,3.03,'1111122,1111122,1111122' 
COMPS,ioos:station:USF.COMPS:ARP:1,2017-10-01T11:42:00Z,28.4330,-82.6670,10.0,2.04,75.09,2.93,'1111122,1111122,1111122' 
COMPS,ioos:station:USF.COMPS:ARP:1,2017-10-01T11:48:00Z,28.4330,-82.6670,10.0,1.88,79.67,2.45,'1111122,1111122,1111122' 
COMPS,ioos:station:USF.COMPS:ARP:1,2017-10-01T11:54:00Z,28.4330,-82.6670,10.0,1.95,79.7,2.74,'1111122,1111122,1111122' 
COMPS,ioos:station:USF.COMPS:ARP:1,2017-10-01T12:00:00Z,28.4330,-82.6670,10.0,1.84,84.47,2.45,'1111122,1111122,1111122' 
COMPS,ioos:station:USF.COMPS:ARP:1,2017-10-01T12:06:00Z,28.4330,-82.6670,10.0,2.03,84.4,2.64,'1111122,1111122,1111122' 
COMPS,ioos:station:USF.COMPS:ARP:1,2017-10-01T12:12:00Z,28.4330,-82.6670,10.0,1.96,78.76,2.45,'1111122,1111122,1111122' 
COMPS,ioos:station:USF.COMPS:ARP:1,2017-10-01T12:18:00Z,28.4330,-82.6670,10.0,2.0,77.74,3.03,'1111122,1111122,1111122' 
COMPS,ioos:station:USF.COMPS:ARP:1,2017-10-01T12:24:00Z,28.4330,-82.6670,10.0,2.33,77.84,3.23,'1111122,1111122,1111122' 
COMPS,ioos:station:USF.COMPS:ARP:1,2017-10-01T12:30:00Z,28.4330,-82.6670,10.0,2.61,76.92,3.72,'1111122,1111122,1111122' 
COMPS,ioos:station:USF.COMPS:ARP:1,2017-10-01T12:36:00Z,28.4330,-82.6670,10.0,2.71,79.13,4.21,'1111122,1111122,1111122' 
COMPS,ioos:station:USF.COMPS:ARP:1,2017-10-01T12:42:00Z,28.4330,-82.6670,10.0,2.95,77.21,4.6,'1111122,1111122,1111122' 
COMPS,ioos:station:USF.COMPS:ARP:1,2017-10-01T12:48:00Z,28.4330,-82.6670,10.0,3.06,76.56,4.5,'1111122,1111122,1111122' 
COMPS,ioos:station:USF.COMPS:ARP:1,2017-10-01T12:54:00Z,28.4330,-82.6670,10.0,2.63,80.49,3.82,'1111122,1111122,1111122' 
COMPS,ioos:station:USF.COMPS:ARP:1,2017-10-01T13:00:00Z,28.4330,-82.6670,10.0,2.64,85.06,3.91,'1111122,1111122,1111122' 
COMPS,ioos:station:USF.COMPS:ARP:1,2017-10-01T13:06:00Z,28.4330,-82.6670,10.0,2.69,82.82,4.11,'1111122,1111122,1111122' 
COMPS,ioos:station:USF.COMPS:ARP:1,2017-10-01T13:12:00Z,28.4330,-82.6670,10.0,3.06,100.05,5.48,'1111122,1111122,1111122' 
COMPS,ioos:station:USF.COMPS:ARP:1,2017-10-01T13:18:00Z,28.4330,-82.6670,10.0,3.05,98.24,5.39,'1111122,1111122,1111122' 
COMPS,ioos:station:USF.COMPS:ARP:1,2017-10-01T13:24:00Z,28.4330,-82.6670,10.0,3.54,96.19,6.27,'1111122,1111122,1111122' 
COMPS,ioos:station:USF.COMPS:ARP:1,2017-10-01T13:30:00Z,28.4330,-82.6670,10.0,3.94,82.68,5.78,'1111122,1111122,1111122' 
COMPS,ioos:station:USF.COMPS:ARP:1,2017-10-01T13:36:00Z,28.4330,-82.6670,10.0,3.46,84.08,4.99,'1111122,1111122,1111122' 
COMPS,ioos:station:USF.COMPS:ARP:1,2017-10-01T13:42:00Z,28.4330,-82.6670,10.0,3.55,91.15,5.19,'1111122,1111122,1111122' 
COMPS,ioos:station:USF.COMPS:ARP:1,2017-10-01T13:48:00Z,28.4330,-82.6670,10.0,3.07,92.52,4.6,'1111122,1111122,1111122' 
COMPS,ioos:station:USF.COMPS:ARP:1,2017-10-01T13:54:00Z,28.4330,-82.6670,10.0,3.62,83.57,5.39,'1111122,1111122,1111122' 
COMPS,ioos:station:USF.COMPS:ARP:1,2017-10-01T14:00:00Z,28.4330,-82.6670,10.0,3.2,91.8,4.41,'1111122,1111122,1111122' 
COMPS,ioos:station:USF.COMPS:ARP:1,2017-10-01T14:06:00Z,28.4330,-82.6670,10.0,3.32,93.03,5.09,'1111122,1111122,1111122' 
COMPS,ioos:station:USF.COMPS:ARP:1,2017-10-01T14:12:00Z,28.4330,-82.6670,10.0,3.5,85.66,5.58,'1111122,1111122,1111122' 
COMPS,ioos:station:USF.COMPS:ARP:1,2017-10-01T14:18:00Z,28.4330,-82.6670,10.0,2.92,93.33,4.21,'1111122,1111122,1111122' 
COMPS,ioos:station:USF.COMPS:ARP:1,2017-10-01T14:24:00Z,28.4330,-82.6670,10.0,3.33,87.4,5.68,'1111122,1111122,1111122' 
COMPS,ioos:station:USF.COMPS:ARP:1,2017-10-01T14:30:00Z,28.4330,-82.6670,10.0,4.09,75.6,5.97,'1111122,1111122,1111122' 
COMPS,ioos:station:USF.COMPS:ARP:1,2017-10-01T14:36:00Z,28.4330,-82.6670,10.0,3.37,78.02,5.97,'1111122,1111122,1111122' 
COMPS,ioos:station:USF.COMPS:ARP:1,2017-10-01T14:42:00Z,28.4330,-82.6670,10.0,3.23,83.82,4.99,'1111122,1111122,1111122' 
COMPS,ioos:station:USF.COMPS:ARP:1,2017-10-01T14:48:00Z,28.4330,-82.6670,10.0,3.16,77.96,4.7,'1111122,1111122,1111122' 
COMPS,ioos:station:USF.COMPS:ARP:1,2017-10-01T14:54:00Z,28.4330,-82.6670,10.0,2.36,104.91,3.82,'1111122,1111122,1111122' 
COMPS,ioos:station:USF.COMPS:ARP:1,2017-10-01T15:00:00Z,28.4330,-82.6670,10.0,3.28,83.79,4.9,'1111122,1111122,1111122' 
COMPS,ioos:station:USF.COMPS:ARP:1,2017-10-01T15:06:00Z,28.4330,-82.6670,10.0,3.57,92.46,6.27,'1111122,1111122,1111122' 
COMPS,ioos:station:USF.COMPS:ARP:1,2017-10-01T15:12:00Z,28.4330,-82.6670,10.0,3.48,98.18,4.99,'1111122,1111122,1111122' 
COMPS,ioos:station:USF.COMPS:ARP:1,2017-10-01T15:18:00Z,28.4330,-82.6670,10.0,2.58,94.55,4.7,'1111122,1111122,1111122' 
COMPS,ioos:station:USF.COMPS:ARP:1,2017-10-01T15:24:00Z,28.4330,-82.6670,10.0,3.35,102.12,6.66,'1111122,1111122,1111122' 
COMPS,ioos:station:USF.COMPS:ARP:1,2017-10-01T15:30:00Z,28.4330,-82.6670,10.0,3.13,101.61,5.58,'1111122,1111122,1111122' 
COMPS,ioos:station:USF.COMPS:ARP:1,2017-10-01T15:36:00Z,28.4330,-82.6670,10.0,2.95,107.63,5.68,'1111122,1111122,1111122' 
COMPS,ioos:station:USF.COMPS:ARP:1,2017-10-01T15:42:00Z,28.4330,-82.6670,10.0,3.01,104.02,4.8,'1111122,1111122,1111122' 
COMPS,ioos:station:USF.COMPS:ARP:1,2017-10-01T15:48:00Z,28.4330,-82.6670,10.0,3.78,95.08,7.64,'1111122,1111122,1111122' 
COMPS,ioos:station:USF.COMPS:ARP:1,2017-10-01T15:54:00Z,28.4330,-82.6670,10.0,4.39,99.49,7.15,'1111122,1111122,1111122' 
COMPS,ioos:station:USF.COMPS:ARP:1,2017-10-01T16:00:00Z,28.4330,-82.6670,10.0,3.56,111.56,6.66,'1111122,1111122,1111122' 
COMPS,ioos:station:USF.COMPS:ARP:1,2017-10-01T16:06:00Z,28.4330,-82.6670,10.0,3.16,103.23,5.29,'1111122,1111122,1111122' 
COMPS,ioos:station:USF.COMPS:ARP:1,2017-10-01T16:12:00Z,28.4330,-82.6670,10.0,3.0,119.4,6.37,'1111122,1111122,1111122' 
COMPS,ioos:station:USF.COMPS:ARP:1,2017-10-01T16:18:00Z,28.4330,-82.6670,10.0,3.65,104.89,6.17,'1111122,1111122,1111122' 
COMPS,ioos:station:USF.COMPS:ARP:1,2017-10-01T16:24:00Z,28.4330,-82.6670,10.0,3.27,95.42,4.9,'1111122,1111122,1111122' 
COMPS,ioos:station:USF.COMPS:ARP:1,2017-10-01T16:30:00Z,28.4330,-82.6670,10.0,3.45,117.94,5.29,'1111122,1111122,1111122' 
COMPS,ioos:station:USF.COMPS:ARP:1,2017-10-01T16:36:00Z,28.4330,-82.6670,10.0,2.91,116.34,4.8,'1111122,1111122,1111122' 
COMPS,ioos:station:USF.COMPS:ARP:1,2017-10-01T16:42:00Z,28.4330,-82.6670,10.0,3.3,122.12,6.46,'1111122,1111122,1111122' 
COMPS,ioos:station:USF.COMPS:ARP:1,2017-10-01T16:48:00Z,28.4330,-82.6670,10.0,3.22,111.87,5.58,'1111122,1111122,1111122' 
COMPS,ioos:station:USF.COMPS:ARP:1,2017-10-01T16:54:00Z,28.4330,-82.6670,10.0,4.16,101.85,6.07,'1111122,1111122,1111122' 
COMPS,ioos:station:USF.COMPS:ARP:1,2017-10-01T17:00:00Z,28.4330,-82.6670,10.0,3.28,107.94,5.78,'1111122,1111122,1111122' 
COMPS,ioos:station:USF.COMPS:ARP:1,2017-10-01T17:06:00Z,28.4330,-82.6670,10.0,2.7,121.47,5.39,'1111122,1111122,1111122' 
COMPS,ioos:station:USF.COMPS:ARP:1,2017-10-01T17:12:00Z,28.4330,-82.6670,10.0,1.8,123.07,4.5,'1111122,1111122,1111122' 
COMPS,ioos:station:USF.COMPS:ARP:1,2017-10-01T17:18:00Z,28.4330,-82.6670,10.0,3.01,123.74,5.48,'1111122,1111122,1111122' 
COMPS,ioos:station:USF.COMPS:ARP:1,2017-10-01T17:24:00Z,28.4330,-82.6670,10.0,3.56,113.51,6.95,'1111122,1111122,1111122' 
COMPS,ioos:station:USF.COMPS:ARP:1,2017-10-01T17:30:00Z,28.4330,-82.6670,10.0,2.83,122.2,4.7,'1111122,1111122,1111122' 
COMPS,ioos:station:USF.COMPS:ARP:1,2017-10-01T17:36:00Z,28.4330,-82.6670,10.0,2.76,130.4,4.7,'1111122,1111122,1111122' 
COMPS,ioos:station:USF.COMPS:ARP:1,2017-10-01T17:42:00Z,28.4330,-82.6670,10.0,2.23,136.53,4.5,'1111122,1111122,1111122' 
COMPS,ioos:station:USF.COMPS:ARP:1,2017-10-01T17:48:00Z,28.4330,-82.6670,10.0,2.38,103.73,4.5,'1111122,1111122,1111122' 
COMPS,ioos:station:USF.COMPS:ARP:1,2017-10-01T17:54:00Z,28.4330,-82.6670,10.0,3.44,118.53,5.68,'1111122,1111122,1111122' 
COMPS,ioos:station:USF.COMPS:ARP:1,2017-10-01T18:00:00Z,28.4330,-82.6670,10.0,3.15,108.18,5.87,'1111122,1111122,1111122' 
COMPS,ioos:station:USF.COMPS:ARP:1,2017-10-01T18:06:00Z,28.4330,-82.6670,10.0,2.39,117.27,4.41,'1111122,1111122,1111122' 
COMPS,ioos:station:USF.COMPS:ARP:1,2017-10-01T18:12:00Z,28.4330,-82.6670,10.0,2.32,122.92,5.87,'1111122,1111122,1111122' 
COMPS,ioos:station:USF.COMPS:ARP:1,2017-10-01T18:18:00Z,28.4330,-82.6670,10.0,1.36,117.29,2.74,'1111122,1111122,1111122' 
COMPS,ioos:station:USF.COMPS:ARP:1,2017-10-01T18:24:00Z,28.4330,-82.6670,10.0,2.15,102.02,4.21,'1111122,1111122,1111122' 
COMPS,ioos:station:USF.COMPS:ARP:1,2017-10-01T18:30:00Z,28.4330,-82.6670,10.0,2.88,98.21,4.5,'1111122,1111122,1111122' 
COMPS,ioos:station:USF.COMPS:ARP:1,2017-10-01T18:36:00Z,28.4330,-82.6670,10.0,2.42,102.48,4.41,'1111122,1111122,1111122' 
COMPS,ioos:station:USF.COMPS:ARP:1,2017-10-01T18:42:00Z,28.4330,-82.6670,10.0,1.71,105.26,4.5,'1111122,1111122,1111122' 
COMPS,ioos:station:USF.COMPS:ARP:1,2017-10-01T18:48:00Z,28.4330,-82.6670,10.0,2.6,95.84,4.01,'1111122,1111122,1111122' 
COMPS,ioos:station:USF.COMPS:ARP:1,2017-10-01T18:54:00Z,28.4330,-82.6670,10.0,3.57,96.02,6.07,'1111122,1111122,1111122' 
COMPS,ioos:station:USF.COMPS:ARP:1,2017-10-01T19:00:00Z,28.4330,-82.6670,10.0,2.59,94.33,4.21,'1111122,1111122,1111122' 
COMPS,ioos:station:USF.COMPS:ARP:1,2017-10-01T19:06:00Z,28.4330,-82.6670,10.0,2.54,77.62,4.7,'1111122,1111122,1111122' 
COMPS,ioos:station:USF.COMPS:ARP:1,2017-10-01T19:12:00Z,28.4330,-82.6670,10.0,1.76,107.69,3.52,'1111122,1111122,1111122' 
COMPS,ioos:station:USF.COMPS:ARP:1,2017-10-01T19:18:00Z,28.4330,-82.6670,10.0,1.56,113.78,2.64,'1111122,1111122,1111122' 
COMPS,ioos:station:USF.COMPS:ARP:1,2017-10-01T19:24:00Z,28.4330,-82.6670,10.0,1.89,166.65,3.52,'1111122,1111122,1111122' 
COMPS,ioos:station:USF.COMPS:ARP:1,2017-10-01T19:30:00Z,28.4330,-82.6670,10.0,2.77,102.39,4.9,'1111122,1111122,1111122' 
COMPS,ioos:station:USF.COMPS:ARP:1,2017-10-01T19:36:00Z,28.4330,-82.6670,10.0,2.65,98.18,4.21,'1111122,1111122,1111122' 